| time (UTC) | temp F | wind direction | speed knots | gust knots | rain 1hr in | rain 24hr in | rain mn in | humidity % | barometer mb |
| 20260510131232 | 55 | 224 | 0.0 | 3.5 | 0.00 | 0.00 | 0.00 | 99 | 1013.3 |
| 20260510130728 | 55 | 327 | 0.0 | 3.5 | 0.00 | 0.00 | 0.00 | 99 | 1013.1 |
| 20260510130225 | 54 | 277 | 1.7 | 5.2 | 0.00 | 0.00 | 0.00 | 99 | 1013.2 |
| 20260510125722 | 54 | 213 | 2.6 | 2.6 | 0.00 | 0.00 | 0.00 | 99 | 1013.1 |
| 20260510125218 | 54 | 324 | 2.6 | 3.5 | 0.00 | 0.00 | 0.00 | 99 | 1013.1 |
| 20260510124715 | 53 | 274 | 0.0 | 2.6 | 0.00 | 0.00 | 0.00 | 99 | 1013.2 |
| 20260510124213 | 53 | 335 | 0.0 | 3.5 | 0.00 | 0.00 | 0.00 | 99 | 1013.0 |
| 20260510123707 | 53 | 293 | 0.9 | 1.7 | 0.00 | 0.00 | 0.00 | 99 | 1013.1 |
| 20260510123204 | 53 | 283 | 0.9 | 2.6 | 0.00 | 0.00 | 0.00 | 99 | 1012.7 |
| 20260510122700 | 53 | 302 | 0.9 | 1.7 | 0.00 | 0.00 | 0.00 | 99 | 1012.6 |
| 20260510122156 | 52 | 15 | 0.0 | 1.7 | 0.00 | 0.00 | 0.00 | 99 | 1012.6 |
| 20260510121647 | 52 | 10 | 0.0 | 0.9 | 0.00 | 0.00 | 0.00 | 99 | 1012.9 |
| 20260510121145 | 51 | 293 | 0.0 | 0.9 | 0.00 | 0.00 | 0.00 | 99 | 1012.8 |
| 20260510120642 | 51 | 288 | 0.9 | 2.6 | 0.00 | 0.00 | 0.00 | 99 | 1012.6 |
| 20260510120138 | 51 | 358 | 0.0 | 1.7 | 0.00 | 0.00 | 0.00 | 99 | 1012.6 |
| 20260510115634 | 51 | 14 | 0.0 | 1.7 | 0.00 | 0.00 | 0.00 | 99 | 1012.5 |
| 20260510115133 | 51 | 130 | 0.0 | 0.9 | 0.00 | 0.00 | 0.00 | 99 | 1012.6 |
| 20260510114628 | 50 | 303 | 0.0 | 1.7 | 0.00 | 0.00 | 0.00 | 99 | 1012.5 |
| 20260510114124 | 51 | 293 | 0.0 | 1.7 | 0.00 | 0.00 | 0.00 | 99 | 1012.8 |
| 20260510113620 | 51 | 284 | 0.9 | 1.7 | 0.00 | 0.00 | 0.00 | 99 | 1012.4 |
| 20260510113117 | 50 | 296 | 1.7 | 2.6 | 0.00 | 0.00 | 0.00 | 99 | 1012.5 |
| 20260510112614 | 50 | 335 | 0.9 | 1.7 | 0.00 | 0.00 | 0.00 | 99 | 1012.4 |
| 20260510112110 | 51 | 268 | 0.9 | 1.7 | 0.00 | 0.00 | 0.00 | 99 | 1012.2 |
| 20260510111607 | 51 | 324 | 0.0 | 1.7 | 0.00 | 0.00 | 0.00 | 99 | 1012.1 |
| 20260510111102 | 51 | 299 | 0.0 | 1.7 | 0.00 | 0.00 | 0.00 | 99 | 1012.3 |
| 20260510110558 | 51 | 347 | 0.0 | 1.7 | 0.00 | 0.00 | 0.00 | 99 | 1012.1 |
| 20260510110055 | 51 | 309 | 0.9 | 1.7 | 0.00 | 0.00 | 0.00 | 99 | 1012.0 |
| 20260510105551 | 51 | 307 | 1.7 | 2.6 | 0.00 | 0.00 | 0.00 | 99 | 1011.9 |
| 20260510105045 | 51 | 283 | 0.0 | 2.6 | 0.00 | 0.00 | 0.00 | 99 | 1011.9 |
| 20260510104542 | 50 | 3 | 0.9 | 2.6 | 0.00 | 0.00 | 0.00 | 99 | 1011.6 |
| 20260510104039 | 50 | 134 | 1.7 | 2.6 | 0.00 | 0.00 | 0.00 | 99 | 1011.6 |
| 20260510103536 | 50 | 75 | 0.9 | 3.5 | 0.00 | 0.00 | 0.00 | 99 | 1011.7 |
| 20260510103032 | 49 | 49 | 1.7 | 2.6 | 0.00 | 0.00 | 0.00 | 99 | 1011.6 |
| 20260510102528 | 49 | 20 | 0.0 | 3.5 | 0.00 | 0.00 | 0.00 | 99 | 1011.5 |
| 20260510102024 | 49 | 0 | 0.9 | 2.6 | 0.00 | 0.00 | 0.00 | 99 | 1011.5 |
| 20260510101522 | 49 | 103 | 0.0 | 1.7 | 0.00 | 0.00 | 0.00 | 99 | 1011.4 |
| 20260510101021 | 49 | 27 | 0.9 | 2.6 | 0.00 | 0.00 | 0.00 | 99 | 1011.5 |
| 20260510100516 | 49 | 46 | 1.7 | 2.6 | 0.00 | 0.00 | 0.00 | 99 | 1011.6 |
| 20260510100014 | 49 | 37 | 0.0 | 2.6 | 0.00 | 0.00 | 0.00 | 99 | 1011.3 |
| 20260510095509 | 49 | 5 | 1.7 | 2.6 | 0.02 | 0.00 | 0.00 | 99 | 1011.4 |
| 20260510095008 | 49 | 136 | 0.0 | 2.6 | 0.02 | 0.00 | 0.00 | 99 | 1011.5 |
| 20260510094503 | 49 | 113 | 1.7 | 1.7 | 0.00 | 0.00 | 0.00 | 99 | 1011.5 |
| 20260510093959 | 49 | 57 | 0.9 | 2.6 | 0.00 | 0.00 | 0.00 | 99 | 1011.5 |
| 20260510093455 | 49 | 4 | 0.0 | 1.7 | 0.00 | 0.00 | 0.00 | 99 | 1011.4 |
| 20260510092951 | 49 | 109 | 0.0 | 3.5 | 0.00 | 0.00 | 0.00 | 99 | 1011.6 |
| 20260510092448 | 49 | 147 | 0.0 | 2.6 | 0.00 | 0.00 | 0.00 | 99 | 1011.6 |
| 20260510091942 | 49 | 125 | 1.7 | 2.6 | 0.00 | 0.00 | 0.00 | 99 | 1011.4 |
| 20260510091440 | 49 | 6 | 0.0 | 2.6 | 0.00 | 0.00 | 0.00 | 99 | 1011.2 |
| 20260510090936 | 49 | 55 | 0.0 | 2.6 | 0.00 | 0.00 | 0.00 | 99 | 1011.6 |
| 20260510090433 | 49 | 47 | 0.0 | 1.7 | 0.00 | 0.00 | 0.00 | 99 | 1011.3 |
| 20260510085929 | 49 | 53 | 0.0 | 2.6 | 0.00 | 0.00 | 0.00 | 99 | 1011.7 |
| 20260510085424 | 49 | 89 | 1.7 | 2.6 | 0.00 | 0.00 | 0.00 | 99 | 1011.8 |
| 20260510084919 | 49 | 60 | 0.0 | 0.9 | 0.00 | 0.00 | 0.00 | 99 | 1011.8 |
| 20260510084417 | 49 | 93 | 0.0 | 1.7 | 0.00 | 0.00 | 0.00 | 99 | 1011.9 |
| 20260510083914 | 49 | 88 | 0.0 | 1.7 | 0.00 | 0.00 | 0.00 | 99 | 1011.9 |
| 20260510083410 | 49 | 124 | 0.0 | 2.6 | 0.00 | 0.00 | 0.00 | 99 | 1011.8 |
| 20260510082905 | 49 | 127 | 0.0 | 1.7 | 0.00 | 0.00 | 0.00 | 99 | 1011.8 |
| 20260510082403 | 49 | 100 | 1.7 | 2.6 | 0.00 | 0.00 | 0.00 | 99 | 1012.1 |
| 20260510081901 | 49 | 106 | 0.0 | 0.9 | 0.00 | 0.00 | 0.00 | 99 | 1012.2 |
| 20260510081358 | 49 | 146 | 0.9 | 1.7 | 0.00 | 0.00 | 0.00 | 99 | 1012.2 |
| 20260510080854 | 48 | 161 | 0.9 | 1.7 | 0.00 | 0.00 | 0.00 | 99 | 1012.2 |
| 20260510080348 | 48 | 350 | 0.0 | 0.9 | 0.00 | 0.00 | 0.00 | 99 | 1012.2 |
| 20260510075846 | 48 | 22 | 0.0 | 2.6 | 0.00 | 0.00 | 0.00 | 99 | 1012.2 |
| 20260510075344 | 48 | 287 | 0.9 | 1.7 | 0.00 | 0.00 | 0.00 | 99 | 1012.2 |
| 20260510074840 | 48 | 326 | 0.0 | 1.7 | 0.00 | 0.00 | 0.00 | 99 | 1012.3 |
| 20260510074337 | 48 | 35 | 0.0 | 1.7 | 0.00 | 0.00 | 0.00 | 99 | 1012.1 |
| 20260510073833 | 48 | 41 | 1.7 | 3.5 | 0.00 | 0.00 | 0.00 | 99 | 1011.9 |
| 20260510073323 | 48 | 353 | 0.9 | 2.6 | 0.00 | 0.00 | 0.00 | 99 | 1012.3 |
| 20260510072820 | 48 | 283 | 1.7 | 5.2 | 0.00 | 0.00 | 0.00 | 99 | 1012.1 |
| 20260510072317 | 49 | 315 | 1.7 | 3.5 | 0.00 | 0.00 | 0.00 | 99 | 1012.2 |
| 20260510071813 | 48 | 306 | 0.9 | 1.7 | 0.00 | 0.00 | 0.00 | 99 | 1011.4 |
| 20260510071309 | 48 | 165 | 0.0 | 1.7 | 0.00 | 0.00 | 0.00 | 99 | 1011.5 |
| 20260510070808 | 48 | 170 | 0.0 | 1.7 | 0.00 | 0.00 | 0.00 | 99 | 1011.5 |
| 20260510070259 | 48 | 308 | 0.9 | 1.7 | 0.00 | 0.00 | 0.00 | 99 | 1011.4 |
| 20260510065758 | 48 | 327 | 0.0 | 1.7 | 0.00 | 0.00 | 0.00 | 99 | 1011.5 |
| 20260510065250 | 48 | 5 | 0.0 | 1.7 | 0.00 | 0.00 | 0.00 | 99 | 1011.6 |
| 20260510064747 | 48 | 219 | 0.0 | 0.9 | 0.00 | 0.00 | 0.00 | 99 | 1011.7 |
| 20260510064244 | 48 | 166 | 0.0 | 0.9 | 0.00 | 0.00 | 0.00 | 99 | 1011.6 |
| 20260510063740 | 48 | 310 | 0.0 | 1.7 | 0.00 | 0.00 | 0.00 | 99 | 1011.7 |
| 20260510063237 | 48 | 5 | 0.0 | 1.7 | 0.00 | 0.00 | 0.00 | 99 | 1011.9 |
| 20260510062733 | 48 | 191 | 0.0 | 0.9 | 0.00 | 0.00 | 0.00 | 99 | 1011.7 |
| 20260510062229 | 48 | 240 | 0.0 | 1.7 | 0.00 | 0.00 | 0.00 | 99 | 1011.8 |
| 20260510061725 | 48 | 173 | 0.0 | 0.9 | 0.00 | 0.00 | 0.00 | 99 | 1011.8 |
| 20260510061222 | 48 | 124 | 0.0 | 0.0 | 0.00 | 0.00 | 0.00 | 99 | 1011.6 |
| 20260510060718 | 48 | 119 | 0.9 | 0.9 | 0.00 | 0.00 | 0.00 | 99 | 1011.7 |
| 20260510060215 | 48 | 132 | 0.0 | 0.9 | 0.00 | 0.00 | 0.00 | 99 | 1011.7 |
| 20260510055712 | 48 | 119 | 0.0 | 0.9 | 0.00 | 0.00 | 0.00 | 99 | 1011.7 |
| 20260510055210 | 47 | 358 | 0.0 | 0.9 | 0.00 | 0.00 | 0.00 | 99 | 1011.7 |
| 20260510054705 | 47 | 167 | 0.0 | 0.9 | 0.00 | 0.00 | 0.00 | 99 | 1011.8 |
| 20260510054201 | 47 | 260 | 0.9 | 1.7 | 0.00 | 0.00 | 0.00 | 99 | 1011.6 |
| 20260510053700 | 47 | 235 | 0.0 | 0.9 | 0.00 | 0.00 | 0.00 | 99 | 1011.3 |
| 20260510053157 | 47 | 135 | 0.0 | 0.9 | 0.00 | 0.00 | 0.00 | 99 | 1011.3 |
| 20260510052653 | 47 | 95 | 1.7 | 1.7 | 0.00 | 0.00 | 0.00 | 99 | 1011.4 |
| 20260510052149 | 47 | 104 | 0.9 | 1.7 | 0.00 | 0.00 | 0.00 | 99 | 1011.1 |
| 20260510051645 | 47 | 173 | 0.0 | 0.9 | 0.00 | 0.00 | 0.00 | 99 | 1011.4 |
| 20260510051142 | 48 | 14 | 0.0 | 1.7 | 0.00 | 0.00 | 0.00 | 99 | 1011.3 |
| 20260510050639 | 48 | 102 | 0.0 | 1.7 | 0.00 | 0.00 | 0.00 | 99 | 1011.4 |
| 20260510050136 | 48 | 105 | 1.7 | 1.7 | 0.00 | 0.00 | 0.00 | 99 | 1011.3 |
| 20260510045632 | 48 | 57 | 1.7 | 1.7 | 0.00 | 0.00 | 0.00 | 99 | 1011.3 |
| 20260510045129 | 48 | 97 | 0.9 | 1.7 | 0.00 | 0.00 | 0.00 | 99 | 1011.3 |
| 20260510044625 | 48 | 32 | 0.0 | 2.6 | 0.00 | 0.00 | 0.00 | 99 | 1011.4 |
| 20260510044123 | 48 | 68 | 0.9 | 1.7 | 0.00 | 0.00 | 0.00 | 99 | 1011.2 |
| 20260510043618 | 48 | 87 | 1.7 | 2.6 | 0.00 | 0.00 | 0.00 | 99 | 1011.5 |
| 20260510043109 | 48 | 48 | 0.0 | 1.7 | 0.00 | 0.00 | 0.00 | 99 | 1011.3 |
| 20260510042608 | 49 | 48 | 0.9 | 1.7 | 0.00 | 0.00 | 0.00 | 99 | 1011.4 |
| 20260510042102 | 49 | 349 | 0.0 | 1.7 | 0.00 | 0.00 | 0.00 | 99 | 1011.3 |
| 20260510041559 | 49 | 20 | 0.0 | 1.7 | 0.00 | 0.00 | 0.00 | 99 | 1011.6 |
| 20260510041057 | 49 | 67 | 0.9 | 2.6 | 0.00 | 0.00 | 0.00 | 99 | 1011.4 |
| 20260510040554 | 49 | 54 | 1.7 | 2.6 | 0.00 | 0.00 | 0.00 | 99 | 1011.4 |
| 20260510040049 | 50 | 58 | 0.9 | 3.5 | 0.00 | 0.30 | 0.30 | 99 | 1011.5 |
| 20260510035546 | 50 | 18 | 0.0 | 2.6 | 0.00 | 0.30 | 0.30 | 99 | 1011.3 |
| 20260510035045 | 50 | 26 | 0.9 | 2.6 | 0.00 | 0.30 | 0.30 | 99 | 1011.3 |
| 20260510034544 | 50 | 112 | 0.0 | 2.6 | 0.00 | 0.30 | 0.30 | 99 | 1011.4 |
| 20260510034041 | 50 | 25 | 0.9 | 1.7 | 0.00 | 0.30 | 0.30 | 99 | 1011.4 |
| 20260510033537 | 50 | 110 | 0.9 | 2.6 | 0.00 | 0.30 | 0.30 | 99 | 1011.5 |
| 20260510033035 | 50 | 18 | 1.7 | 2.6 | 0.00 | 0.30 | 0.30 | 99 | 1011.1 |
| 20260510032531 | 50 | 0 | 0.0 | 2.6 | 0.00 | 0.30 | 0.30 | 99 | 1011.1 |
| 20260510032027 | 50 | 29 | 1.7 | 2.6 | 0.00 | 0.30 | 0.30 | 99 | 1011.4 |
| 20260510031522 | 50 | 357 | 0.9 | 1.7 | 0.00 | 0.30 | 0.30 | 99 | 1011.2 |
| 20260510031018 | 50 | 346 | 0.9 | 2.6 | 0.00 | 0.30 | 0.30 | 99 | 1011.2 |
| 20260510030514 | 50 | 28 | 0.9 | 2.6 | 0.00 | 0.30 | 0.30 | 99 | 1011.0 |
| 20260510030011 | 50 | 74 | 0.9 | 1.7 | 0.00 | 0.30 | 0.30 | 99 | 1010.9 |
| 20260510025508 | 50 | 143 | 0.9 | 1.7 | 0.00 | 0.30 | 0.30 | 99 | 1011.2 |
| 20260510025005 | 50 | 4 | 0.9 | 1.7 | 0.00 | 0.30 | 0.30 | 99 | 1011.1 |
| 20260510024502 | 50 | 47 | 0.9 | 1.7 | 0.00 | 0.30 | 0.30 | 99 | 1011.2 |
| 20260510023957 | 50 | 6 | 1.7 | 2.6 | 0.00 | 0.30 | 0.30 | 99 | 1011.3 |
| 20260510023449 | 50 | 99 | 0.9 | 4.3 | 0.00 | 0.30 | 0.30 | 99 | 1011.2 |
| 20260510022946 | 50 | 100 | 0.0 | 6.1 | 0.00 | 0.30 | 0.30 | 99 | 1011.1 |
| 20260510022445 | 50 | 316 | 0.0 | 1.7 | 0.00 | 0.30 | 0.30 | 99 | 1011.3 |
| 20260510021944 | 50 | 22 | 0.9 | 3.5 | 0.00 | 0.30 | 0.30 | 99 | 1011.1 |
| 20260510021442 | 49 | 43 | 0.9 | 1.7 | 0.00 | 0.30 | 0.30 | 99 | 1011.1 |
| 20260510020938 | 50 | 119 | 0.0 | 2.6 | 0.00 | 0.30 | 0.30 | 99 | 1011.1 |
| 20260510020433 | 50 | 100 | 1.7 | 2.6 | 0.00 | 0.30 | 0.30 | 99 | 1011.2 |
| 20260510015929 | 49 | 39 | 0.0 | 1.7 | 0.00 | 0.30 | 0.30 | 99 | 1011.2 |
| 20260510015425 | 49 | 102 | 0.0 | 0.9 | 0.00 | 0.30 | 0.30 | 99 | 1011.1 |
| 20260510014920 | 50 | 51 | 0.0 | 1.7 | 0.00 | 0.30 | 0.30 | 99 | 1011.0 |
| 20260510014418 | 50 | 18 | 0.9 | 1.7 | 0.00 | 0.30 | 0.30 | 99 | 1011.1 |
| 20260510013914 | 50 | 67 | 2.6 | 2.6 | 0.00 | 0.30 | 0.30 | 99 | 1010.6 |
| 20260510013409 | 50 | 103 | 0.0 | 2.6 | 0.00 | 0.30 | 0.30 | 99 | 1011.2 |
| 20260510012905 | 50 | 77 | 0.0 | 1.7 | 0.00 | 0.30 | 0.30 | 99 | 1011.1 |
| 20260510012400 | 50 | 125 | 0.9 | 2.6 | 0.00 | 0.30 | 0.30 | 99 | 1011.2 |
| 20260510011854 | 50 | 64 | 1.7 | 1.7 | 0.00 | 0.30 | 0.30 | 99 | 1011.2 |
| 20260510011350 | 50 | 124 | 0.0 | 1.7 | 0.00 | 0.30 | 0.30 | 99 | 1011.2 |
| 20260510010846 | 50 | 86 | 0.9 | 1.7 | 0.00 | 0.30 | 0.30 | 99 | 1011.0 |
| 20260510010344 | 50 | 15 | 0.0 | 1.7 | 0.00 | 0.30 | 0.30 | 99 | 1011.1 |
| 20260510005840 | 50 | 136 | 0.0 | 1.7 | 0.00 | 0.30 | 0.30 | 99 | 1011.0 |
| 20260510005337 | 50 | 5 | 0.0 | 0.9 | 0.00 | 0.30 | 0.30 | 99 | 1010.7 |
| 20260510004835 | 51 | 176 | 0.0 | 2.6 | 0.00 | 0.30 | 0.30 | 99 | 1010.3 |
| 20260510004332 | 51 | 48 | 0.0 | 1.7 | 0.00 | 0.30 | 0.30 | 99 | 1010.4 |
| 20260510003829 | 51 | 47 | 1.7 | 2.6 | 0.00 | 0.30 | 0.30 | 99 | 1010.4 |
| 20260510003326 | 51 | 0 | 0.9 | 2.6 | 0.00 | 0.30 | 0.30 | 99 | 1010.1 |
| 20260510002825 | 51 | 102 | 0.9 | 4.3 | 0.00 | 0.30 | 0.30 | 98 | 1010.0 |
| 20260510002322 | 51 | 88 | 1.7 | 1.7 | 0.00 | 0.30 | 0.30 | 98 | 1010.3 |
| 20260510001819 | 52 | 99 | 1.7 | 3.5 | 0.00 | 0.30 | 0.30 | 98 | 1010.2 |
| 20260510001317 | 52 | 78 | 0.9 | 2.6 | 0.00 | 0.30 | 0.30 | 98 | 1010.1 |
| 20260510000813 | 52 | 23 | 1.7 | 2.6 | 0.00 | 0.30 | 0.30 | 98 | 1010.2 |
| 20260510000311 | 52 | 70 | 1.7 | 1.7 | 0.00 | 0.30 | 0.30 | 98 | 1010.3 |
| 20260509235808 | 52 | 349 | 0.0 | 2.6 | 0.00 | 0.30 | 0.30 | 98 | 1010.3 |
| 20260509235306 | 53 | 120 | 0.0 | 2.6 | 0.00 | 0.30 | 0.30 | 97 | 1010.1 |
| 20260509234800 | 53 | 1 | 2.6 | 5.2 | 0.00 | 0.30 | 0.30 | 97 | 1010.5 |
| 20260509234256 | 53 | 0 | 0.0 | 2.6 | 0.00 | 0.30 | 0.30 | 97 | 1010.1 |
| 20260509233755 | 53 | 0 | 0.9 | 4.3 | 0.00 | 0.30 | 0.30 | 97 | 1010.0 |
| 20260509233252 | 54 | 3 | 0.9 | 1.7 | 0.00 | 0.30 | 0.30 | 96 | 1010.0 |
| 20260509232748 | 54 | 84 | 0.0 | 1.7 | 0.00 | 0.30 | 0.30 | 96 | 1009.9 |
| 20260509232246 | 54 | 84 | 0.9 | 1.7 | 0.00 | 0.30 | 0.30 | 96 | 1010.0 |
| 20260509231742 | 55 | 153 | 0.0 | 2.6 | 0.00 | 0.30 | 0.30 | 95 | 1009.8 |
| 20260509231239 | 55 | 52 | 0.0 | 1.7 | 0.00 | 0.30 | 0.30 | 95 | 1009.7 |
| 20260509230736 | 54 | 203 | 0.0 | 1.7 | 0.00 | 0.30 | 0.30 | 94 | 1009.9 |
| 20260509230233 | 55 | 223 | 0.0 | 1.7 | 0.00 | 0.30 | 0.30 | 94 | 1010.1 |
| 20260509225728 | 54 | 189 | 1.7 | 1.7 | 0.00 | 0.30 | 0.30 | 94 | 1010.1 |
| 20260509225224 | 55 | 22 | 0.9 | 1.7 | 0.00 | 0.30 | 0.30 | 93 | 1010.2 |
| 20260509224720 | 55 | 143 | 0.0 | 2.6 | 0.00 | 0.30 | 0.30 | 92 | 1009.9 |
| 20260509224218 | 55 | 273 | 0.0 | 1.7 | 0.00 | 0.30 | 0.30 | 91 | 1010.1 |
| 20260509223714 | 55 | 134 | 0.0 | 2.6 | 0.00 | 0.30 | 0.30 | 91 | 1010.2 |
| 20260509223211 | 57 | 343 | 0.9 | 2.6 | 0.00 | 0.30 | 0.30 | 91 | 1010.0 |
| 20260509222708 | 57 | 333 | 0.0 | 1.7 | 0.00 | 0.30 | 0.30 | 91 | 1010.0 |
| 20260509222204 | 56 | 226 | 0.9 | 1.7 | 0.00 | 0.30 | 0.30 | 90 | 1009.9 |
| 20260509221659 | 56 | 321 | 0.0 | 1.7 | 0.00 | 0.30 | 0.30 | 90 | 1010.3 |
| 20260509221155 | 56 | 200 | 1.7 | 1.7 | 0.00 | 0.30 | 0.30 | 91 | 1010.2 |
| 20260509220651 | 56 | 321 | 2.6 | 2.6 | 0.00 | 0.30 | 0.30 | 90 | 1010.2 |
| 20260509220147 | 56 | 135 | 0.0 | 2.6 | 0.00 | 0.30 | 0.30 | 92 | 1010.4 |
| 20260509215643 | 55 | 318 | 2.6 | 3.5 | 0.00 | 0.30 | 0.30 | 94 | 1010.2 |
| 20260509215141 | 55 | 255 | 1.7 | 3.5 | 0.00 | 0.30 | 0.30 | 95 | 1010.0 |
| 20260509214637 | 54 | 322 | 1.7 | 2.6 | 0.00 | 0.30 | 0.30 | 96 | 1010.3 |
| 20260509214134 | 54 | 207 | 0.0 | 1.7 | 0.00 | 0.30 | 0.30 | 96 | 1010.2 |
| 20260509213631 | 54 | 267 | 0.9 | 1.7 | 0.00 | 0.30 | 0.30 | 96 | 1010.5 |
| 20260509213126 | 55 | 3 | 0.0 | 2.6 | 0.00 | 0.30 | 0.30 | 96 | 1010.2 |
| 20260509212625 | 55 | 174 | 0.0 | 1.7 | 0.00 | 0.30 | 0.30 | 96 | 1010.4 |
| 20260509212121 | 54 | 153 | 2.6 | 4.3 | 0.00 | 0.30 | 0.30 | 96 | 1010.5 |
| 20260509211617 | 54 | 243 | 0.0 | 2.6 | 0.00 | 0.30 | 0.30 | 97 | 1010.5 |
| 20260509211114 | 54 | 20 | 0.9 | 1.7 | 0.00 | 0.30 | 0.30 | 98 | 1010.4 |
| 20260509210610 | 54 | 284 | 0.9 | 1.7 | 0.00 | 0.30 | 0.30 | 98 | 1010.5 |
| 20260509210108 | 53 | 162 | 0.0 | 1.7 | 0.00 | 0.30 | 0.30 | 99 | 1010.5 |
| 20260509205602 | 53 | 150 | 0.0 | 1.7 | 0.00 | 0.30 | 0.30 | 99 | 1010.5 |
| 20260509205057 | 53 | 4 | 0.0 | 1.7 | 0.02 | 0.30 | 0.30 | 99 | 1010.6 |
| 20260509204554 | 53 | 339 | 0.0 | 1.7 | 0.02 | 0.30 | 0.30 | 99 | 1010.6 |
| 20260509204050 | 53 | 263 | 0.9 | 1.7 | 0.00 | 0.29 | 0.29 | 99 | 1010.5 |
| 20260509203545 | 52 | 72 | 0.0 | 1.7 | 0.00 | 0.29 | 0.29 | 99 | 1010.6 |
| 20260509203044 | 53 | 305 | 1.7 | 3.5 | 0.00 | 0.29 | 0.29 | 99 | 1010.5 |
| 20260509202539 | 53 | 325 | 0.9 | 2.6 | 0.02 | 0.29 | 0.29 | 99 | 1010.6 |
| 20260509202035 | 53 | 294 | 0.0 | 1.7 | 0.05 | 0.29 | 0.29 | 99 | 1010.5 |
| 20260509201530 | 52 | 0 | 0.0 | 1.7 | 0.05 | 0.29 | 0.29 | 99 | 1010.7 |
| 20260509201027 | 52 | 269 | 0.0 | 1.7 | 0.05 | 0.29 | 0.29 | 99 | 1010.9 |
| 20260509200521 | 52 | 336 | 0.0 | 1.7 | 0.05 | 0.28 | 0.28 | 99 | 1010.9 |
| 20260509200019 | 52 | 340 | 0.9 | 1.7 | 0.02 | 0.28 | 0.28 | 99 | 1011.0 |
| 20260509195514 | 52 | 153 | 0.0 | 3.5 | 0.07 | 0.28 | 0.28 | 99 | 1011.4 |
| 20260509195014 | 52 | 321 | 0.0 | 2.6 | 0.09 | 0.27 | 0.27 | 99 | 1011.3 |
| 20260509194509 | 52 | 283 | 2.6 | 3.5 | 0.09 | 0.26 | 0.26 | 99 | 1011.4 |
| 20260509194007 | 52 | 280 | 0.9 | 2.6 | 0.09 | 0.26 | 0.26 | 99 | 1011.5 |
| 20260509193507 | 52 | 268 | 1.7 | 6.1 | 0.07 | 0.25 | 0.25 | 99 | 1011.5 |
| 20260509193004 | 52 | 285 | 0.9 | 2.6 | 0.09 | 0.24 | 0.24 | 99 | 1011.7 |
| 20260509192500 | 53 | 282 | 1.7 | 2.6 | 0.07 | 0.23 | 0.23 | 99 | 1011.6 |
| 20260509191955 | 53 | 285 | 1.7 | 2.6 | 0.05 | 0.22 | 0.22 | 99 | 1011.7 |
| 20260509191450 | 53 | 265 | 0.9 | 1.7 | 0.07 | 0.22 | 0.22 | 99 | 1011.6 |
| 20260509190946 | 53 | 285 | 0.9 | 2.6 | 0.07 | 0.21 | 0.21 | 99 | 1011.4 |
| 20260509190443 | 53 | 312 | 3.5 | 3.5 | 0.09 | 0.21 | 0.21 | 99 | 1011.6 |
| 20260509185941 | 53 | 324 | 0.9 | 2.6 | 0.07 | 0.20 | 0.20 | 98 | 1011.8 |
| 20260509185438 | 54 | 304 | 0.9 | 1.7 | 0.07 | 0.19 | 0.19 | 98 | 1011.9 |
| 20260509184935 | 53 | 284 | 1.7 | 2.6 | 0.05 | 0.18 | 0.18 | 98 | 1011.8 |
| 20260509184433 | 53 | 267 | 0.9 | 1.7 | 0.05 | 0.18 | 0.18 | 98 | 1012.0 |
| 20260509183929 | 53 | 278 | 1.7 | 1.7 | 0.07 | 0.17 | 0.17 | 98 | 1011.7 |
| 20260509183423 | 53 | 315 | 0.0 | 2.6 | 0.07 | 0.17 | 0.17 | 97 | 1011.8 |
| 20260509182920 | 53 | 339 | 0.0 | 4.3 | 0.05 | 0.16 | 0.16 | 97 | 1011.9 |
| 20260509182417 | 53 | 235 | 0.0 | 1.7 | 0.02 | 0.15 | 0.15 | 97 | 1011.9 |
| 20260509181914 | 53 | 249 | 0.0 | 1.7 | 0.07 | 0.15 | 0.15 | 97 | 1011.6 |
| 20260509181412 | 53 | 55 | 0.0 | 1.7 | 0.12 | 0.15 | 0.15 | 96 | 1011.8 |
| 20260509180909 | 53 | 141 | 1.7 | 3.5 | 0.17 | 0.13 | 0.13 | 96 | 1011.6 |
| 20260509180404 | 53 | 84 | 0.0 | 2.6 | 0.21 | 0.12 | 0.12 | 96 | 1012.2 |
| 20260509175901 | 54 | 174 | 2.6 | 4.3 | 0.17 | 0.10 | 0.10 | 96 | 1012.1 |
| 20260509175357 | 53 | 129 | 2.6 | 4.3 | 0.12 | 0.09 | 0.09 | 95 | 1012.3 |
| 20260509174853 | 54 | 221 | 0.0 | 2.6 | 0.07 | 0.07 | 0.07 | 95 | 1012.1 |
| 20260509174349 | 54 | 343 | 1.7 | 2.6 | 0.05 | 0.07 | 0.07 | 95 | 1012.3 |
| 20260509173845 | 54 | 128 | 1.7 | 3.5 | 0.05 | 0.06 | 0.06 | 94 | 1012.0 |
| 20260509173340 | 55 | 334 | 2.6 | 2.6 | 0.05 | 0.06 | 0.06 | 93 | 1011.9 |
| 20260509172837 | 55 | 343 | 0.0 | 2.6 | 0.05 | 0.06 | 0.06 | 93 | 1012.0 |
| 20260509172334 | 55 | 268 | 0.0 | 2.6 | 0.05 | 0.05 | 0.05 | 92 | 1012.1 |
| 20260509171830 | 55 | 189 | 0.0 | 4.3 | 0.02 | 0.05 | 0.05 | 91 | 1012.0 |
| 20260509171325 | 55 | 338 | 1.7 | 5.2 | 0.00 | 0.04 | 0.04 | 89 | 1011.9 |
| 20260509170822 | 54 | 283 | 0.9 | 7.0 | 0.02 | 0.04 | 0.04 | 90 | 1011.9 |
| 20260509170318 | 54 | 326 | 1.7 | 4.3 | 0.02 | 0.04 | 0.04 | 90 | 1012.1 |
| 20260509165818 | 55 | 200 | 0.0 | 5.2 | 0.00 | 0.04 | 0.04 | 91 | 1011.9 |
| 20260509165312 | 55 | 317 | 2.6 | 7.0 | 0.00 | 0.04 | 0.04 | 92 | 1012.1 |
| 20260509164809 | 55 | 326 | 1.7 | 2.6 | 0.02 | 0.04 | 0.04 | 93 | 1012.0 |
| 20260509164305 | 55 | 346 | 1.7 | 5.2 | 0.02 | 0.04 | 0.04 | 92 | 1012.1 |
| 20260509163801 | 55 | 319 | 1.7 | 3.5 | 0.00 | 0.04 | 0.04 | 91 | 1012.0 |
| 20260509163258 | 55 | 348 | 2.6 | 3.5 | 0.00 | 0.04 | 0.04 | 91 | 1011.8 |
| 20260509162757 | 55 | 356 | 0.0 | 2.6 | 0.00 | 0.04 | 0.04 | 92 | 1011.8 |
| 20260509162251 | 55 | 31 | 1.7 | 2.6 | 0.00 | 0.04 | 0.04 | 92 | 1012.0 |
| 20260509161747 | 55 | 159 | 0.0 | 3.5 | 0.00 | 0.04 | 0.04 | 93 | 1011.9 |
| 20260509161243 | 55 | 309 | 3.5 | 4.3 | 0.00 | 0.04 | 0.04 | 92 | 1011.9 |
| 20260509160738 | 55 | 322 | 1.7 | 2.6 | 0.00 | 0.04 | 0.04 | 93 | 1012.1 |
| 20260509160230 | 55 | 33 | 0.9 | 2.6 | 0.00 | 0.04 | 0.04 | 92 | 1012.1 |
| 20260509155725 | 55 | 92 | 1.7 | 2.6 | 0.00 | 0.04 | 0.04 | 92 | 1012.0 |
| 20260509155222 | 55 | 283 | 0.0 | 1.7 | 0.00 | 0.04 | 0.04 | 91 | 1012.1 |
| 20260509154718 | 55 | 38 | 0.0 | 2.6 | 0.00 | 0.04 | 0.04 | 91 | 1012.1 |
| 20260509154215 | 55 | 268 | 1.7 | 2.6 | 0.00 | 0.04 | 0.04 | 92 | 1012.1 |
| 20260509153712 | 55 | 22 | 2.6 | 4.3 | 0.00 | 0.04 | 0.04 | 92 | 1012.2 |
| 20260509153208 | 55 | 3 | 1.7 | 1.7 | 0.00 | 0.04 | 0.04 | 92 | 1012.3 |
| 20260509152704 | 55 | 102 | 0.0 | 3.5 | 0.02 | 0.04 | 0.04 | 92 | 1012.2 |
| 20260509152201 | 55 | 131 | 2.6 | 6.1 | 0.02 | 0.04 | 0.04 | 92 | 1012.1 |
| 20260509151658 | 55 | 314 | 1.7 | 4.3 | 0.02 | 0.03 | 0.03 | 92 | 1012.2 |
| 20260509151155 | 55 | 242 | 0.9 | 5.2 | 0.02 | 0.03 | 0.03 | 92 | 1012.3 |
| 20260509150653 | 55 | 348 | 1.7 | 3.5 | 0.00 | 0.03 | 0.03 | 92 | 1012.4 |
| 20260509150151 | 55 | 356 | 0.9 | 2.6 | 0.02 | 0.03 | 0.03 | 92 | 1012.7 |
| 20260509145647 | 55 | 348 | 0.0 | 3.5 | 0.02 | 0.03 | 0.03 | 91 | 1012.6 |
| 20260509145142 | 55 | 217 | 0.0 | 5.2 | 0.00 | 0.02 | 0.02 | 90 | 1012.6 |
| 20260509144639 | 55 | 309 | 0.9 | 4.3 | 0.02 | 0.02 | 0.02 | 88 | 1012.4 |
| 20260509144136 | 55 | 131 | 1.7 | 7.8 | 0.02 | 0.02 | 0.02 | 87 | 1012.5 |
| 20260509143633 | 55 | 268 | 1.7 | 5.2 | 0.00 | 0.02 | 0.02 | 86 | 1012.5 |
| 20260509143131 | 56 | 30 | 0.0 | 3.5 | 0.00 | 0.02 | 0.02 | 85 | 1012.3 |
| 20260509142626 | 56 | 306 | 0.0 | 2.6 | 0.00 | 0.02 | 0.02 | 83 | 1012.2 |
| 20260509142123 | 56 | 298 | 0.0 | 1.7 | 0.00 | 0.02 | 0.02 | 83 | 1012.0 |
| 20260509141619 | 56 | 29 | 0.0 | 4.3 | 0.00 | 0.02 | 0.02 | 82 | 1011.7 |
| 20260509141115 | 56 | 357 | 2.6 | 4.3 | 0.00 | 0.02 | 0.02 | 83 | 1012.1 |
| 20260509140612 | 56 | 271 | 1.7 | 4.3 | 0.00 | 0.02 | 0.02 | 82 | 1012.0 |
| 20260509140110 | 56 | 94 | 1.7 | 2.6 | 0.00 | 0.02 | 0.02 | 84 | 1011.7 |
| 20260509135607 | 55 | 145 | 1.7 | 2.6 | 0.00 | 0.02 | 0.02 | 85 | 1011.8 |
| 20260509135105 | 54 | 58 | 1.7 | 2.6 | 0.00 | 0.02 | 0.02 | 84 | 1012.0 |
| 20260509134602 | 54 | 35 | 1.7 | 3.5 | 0.00 | 0.02 | 0.02 | 85 | 1012.0 |
| 20260509134059 | 54 | 318 | 2.6 | 3.5 | 0.00 | 0.02 | 0.02 | 86 | 1011.8 |
| 20260509133556 | 53 | 32 | 0.0 | 2.6 | 0.00 | 0.02 | 0.02 | 86 | 1012.1 |
| 20260509133053 | 53 | 0 | 1.7 | 3.5 | 0.00 | 0.02 | 0.02 | 85 | 1012.3 |
| 20260509132552 | 53 | 30 | 2.6 | 3.5 | 0.00 | 0.02 | 0.02 | 85 | 1012.1 |
| 20260509132050 | 53 | 284 | 2.6 | 3.5 | 0.00 | 0.02 | 0.02 | 84 | 1012.0 |
| 20260509131545 | 53 | 95 | 0.9 | 5.2 | 0.00 | 0.02 | 0.02 | 84 | 1012.0 |